| time (UTC) | temp F | wind direction | speed knots | gust knots | rain 1hr in | rain 24hr in | rain mn in | humidity % | barometer mb |
| 20260506011805 | 46 | 352 | 1.7 | 4.3 | 0.00 | 0.00 | 0.00 | 89 | 1013.5 |
| 20260506011305 | 46 | 1 | 2.6 | 5.2 | 0.00 | 0.00 | 0.00 | 89 | 1013.7 |
| 20260506010305 | 46 | 342 | 2.6 | 6.1 | 0.00 | 0.00 | 0.00 | 88 | 1013.6 |
| 20260506005805 | 46 | 336 | 2.6 | 6.1 | 0.00 | 0.00 | 0.00 | 88 | 1013.7 |
| 20260506005306 | 47 | 347 | 4.3 | 7.0 | 0.00 | 0.00 | 0.00 | 88 | 1013.8 |
| 20260506004305 | 47 | 335 | 2.6 | 7.8 | 0.00 | 0.00 | 0.00 | 88 | 1013.8 |
| 20260506003804 | 47 | 349 | 3.5 | 8.7 | 0.00 | 0.00 | 0.00 | 87 | 1013.8 |
| 20260506001304 | 48 | 357 | 2.6 | 8.7 | 0.00 | 0.00 | 0.00 | 87 | 1013.8 |
| 20260505235804 | 49 | 15 | 2.6 | 10.4 | 0.00 | 0.00 | 0.00 | 87 | 1013.8 |
| 20260505235305 | 49 | 7 | 4.3 | 10.4 | 0.00 | 0.00 | 0.00 | 87 | 1013.7 |
| 20260505234805 | 49 | 18 | 3.5 | 7.8 | 0.00 | 0.00 | 0.00 | 87 | 1013.8 |
| 20260505234305 | 49 | 29 | 2.6 | 5.2 | 0.00 | 0.00 | 0.00 | 87 | 1013.8 |
| 20260505233304 | 49 | 20 | 3.5 | 8.7 | 0.00 | 0.00 | 0.00 | 87 | 1013.9 |
| 20260505232804 | 49 | 19 | 2.6 | 7.0 | 0.00 | 0.00 | 0.00 | 87 | 1013.9 |
| 20260505231805 | 49 | 20 | 4.3 | 10.4 | 0.00 | 0.00 | 0.00 | 87 | 1013.9 |
| 20260505230824 | 49 | 11 | 2.6 | 13.0 | 0.00 | 0.00 | 0.00 | 87 | 1014.0 |
| 20260505224805 | 49 | 21 | 3.5 | 8.7 | 0.00 | 0.00 | 0.00 | 88 | 1014.1 |
| 20260505222306 | 50 | 17 | 3.5 | 10.4 | 0.00 | 0.00 | 0.00 | 88 | 1014.2 |
| 20260505221804 | 50 | 21 | 2.6 | 6.1 | 0.00 | 0.00 | 0.00 | 88 | 1014.1 |
| 20260505220304 | 50 | 18 | 4.3 | 6.1 | 0.00 | 0.00 | 0.00 | 88 | 1014.1 |
| 20260505215305 | 50 | 45 | 2.6 | 8.7 | 0.00 | 0.00 | 0.00 | 88 | 1014.1 |
| 20260505214305 | 50 | 25 | 0.9 | 2.6 | 0.00 | 0.00 | 0.00 | 88 | 1014.2 |
| 20260505213804 | 50 | 43 | 3.5 | 6.1 | 0.00 | 0.00 | 0.00 | 88 | 1014.2 |
| 20260505212306 | 50 | 17 | 3.5 | 8.7 | 0.00 | 0.00 | 0.00 | 88 | 1014.1 |
| 20260505211804 | 50 | 28 | 5.2 | 13.0 | 0.00 | 0.00 | 0.00 | 88 | 1014.1 |
| 20260505211306 | 50 | 24 | 2.6 | 10.4 | 0.00 | 0.00 | 0.00 | 88 | 1014.2 |
| 20260505210806 | 50 | 40 | 4.3 | 11.3 | 0.00 | 0.00 | 0.00 | 88 | 1014.2 |
| 20260505210304 | 50 | 35 | 5.2 | 11.3 | 0.00 | 0.00 | 0.00 | 88 | 1014.2 |
| 20260505205305 | 51 | 28 | 2.6 | 7.8 | 0.00 | 0.00 | 0.00 | 87 | 1014.1 |
| 20260505204305 | 51 | 43 | 3.5 | 7.8 | 0.00 | 0.00 | 0.00 | 87 | 1014.1 |
| 20260505203304 | 51 | 33 | 3.5 | 13.9 | 0.00 | 0.00 | 0.00 | 86 | 1014.2 |
| 20260505202306 | 51 | 31 | 4.3 | 10.4 | 0.00 | 0.00 | 0.00 | 86 | 1014.2 |
| 20260505201804 | 51 | 22 | 4.3 | 10.4 | 0.00 | 0.00 | 0.00 | 86 | 1014.1 |
| 20260505195305 | 51 | 33 | 3.5 | 7.0 | 0.00 | 0.00 | 0.00 | 84 | 1013.9 |
| 20260505194304 | 51 | 21 | 3.5 | 10.4 | 0.00 | 0.00 | 0.00 | 84 | 1013.8 |
| 20260505193804 | 52 | 32 | 2.6 | 10.4 | 0.00 | 0.00 | 0.00 | 85 | 1013.7 |
| 20260505192805 | 52 | 47 | 6.1 | 13.9 | 0.00 | 0.00 | 0.00 | 85 | 1013.8 |
| 20260505192305 | 52 | 30 | 5.2 | 11.3 | 0.00 | 0.00 | 0.00 | 85 | 1013.7 |
| 20260505191304 | 52 | 44 | 4.3 | 10.4 | 0.00 | 0.00 | 0.00 | 84 | 1013.6 |
| 20260505190804 | 52 | 19 | 5.2 | 13.0 | 0.00 | 0.00 | 0.00 | 83 | 1013.5 |
| 20260505190304 | 52 | 36 | 3.5 | 13.0 | 0.00 | 0.00 | 0.00 | 83 | 1013.5 |
| 20260505185804 | 53 | 33 | 5.2 | 12.2 | 0.00 | 0.00 | 0.00 | 82 | 1013.5 |
| 20260505184305 | 53 | 63 | 3.5 | 12.2 | 0.00 | 0.00 | 0.00 | 81 | 1013.4 |
| 20260505182804 | 54 | 49 | 5.2 | 14.8 | 0.00 | 0.00 | 0.00 | 78 | 1013.4 |
| 20260505182306 | 54 | 22 | 5.2 | 11.3 | 0.00 | 0.00 | 0.00 | 79 | 1013.4 |
| 20260505181804 | 54 | 16 | 5.2 | 12.2 | 0.00 | 0.00 | 0.00 | 79 | 1013.4 |
| 20260505175305 | 55 | 13 | 5.2 | 13.0 | 0.00 | 0.00 | 0.00 | 76 | 1013.3 |
| 20260505174304 | 56 | 29 | 6.1 | 11.3 | 0.00 | 0.00 | 0.00 | 75 | 1013.2 |
| 20260505173304 | 56 | 26 | 6.1 | 13.0 | 0.00 | 0.00 | 0.00 | 76 | 1013.2 |
| 20260505171304 | 57 | 62 | 6.1 | 11.3 | 0.00 | 0.00 | 0.00 | 77 | 1013.1 |
| 20260505170804 | 57 | 46 | 7.8 | 13.9 | 0.00 | 0.00 | 0.00 | 76 | 1013.1 |
| 20260505164304 | 58 | 34 | 6.1 | 17.4 | 0.00 | 0.00 | 0.00 | 76 | 1013.0 |
| 20260505163804 | 58 | 12 | 7.0 | 12.2 | 0.00 | 0.00 | 0.00 | 77 | 1013.0 |
| 20260505162306 | 58 | 52 | 5.2 | 11.3 | 0.00 | 0.00 | 0.00 | 77 | 1012.9 |
| 20260505161806 | 58 | 29 | 6.1 | 13.0 | 0.00 | 0.00 | 0.00 | 77 | 1012.8 |
| 20260505160304 | 60 | 48 | 5.2 | 11.3 | 0.00 | 0.00 | 0.00 | 74 | 1012.8 |
| 20260505153304 | 60 | 5 | 6.1 | 12.2 | 0.00 | 0.00 | 0.00 | 74 | 1012.8 |
| 20260505152305 | 60 | 355 | 6.1 | 12.2 | 0.00 | 0.00 | 0.00 | 74 | 1012.8 |
| 20260505151304 | 60 | 21 | 4.3 | 10.4 | 0.00 | 0.00 | 0.00 | 74 | 1012.8 |
| 20260505150304 | 60 | 24 | 5.2 | 12.2 | 0.00 | 0.00 | 0.00 | 74 | 1012.8 |
| 20260505130304 | 62 | 320 | 4.3 | 7.8 | 0.00 | 0.00 | 0.00 | 64 | 1012.9 |
| 20260505124803 | 61 | 352 | 5.2 | 10.4 | 0.00 | 0.00 | 0.00 | 64 | 1012.9 |
| 20260505123304 | 62 | 38 | 1.7 | 2.6 | 0.00 | 0.00 | 0.00 | 64 | 1012.9 |
| 20260505120804 | 62 | 303 | 2.6 | 5.2 | 0.00 | 0.00 | 0.00 | 64 | 1013.0 |
| 20260505120304 | 62 | 338 | 4.3 | 10.4 | 0.00 | 0.00 | 0.00 | 63 | 1013.0 |
| 20260505115305 | 63 | 46 | 1.7 | 5.2 | 0.00 | 0.00 | 0.00 | 60 | 1013.0 |
| 20260505114304 | 64 | 335 | 4.3 | 7.8 | 0.00 | 0.00 | 0.00 | 56 | 1013.0 |
| 20260505113304 | 64 | 209 | 3.5 | 5.2 | 0.00 | 0.00 | 0.00 | 57 | 1013.0 |
| 20260505111306 | 62 | 31 | 2.6 | 7.0 | 0.00 | 0.00 | 0.00 | 62 | 1013.1 |
| 20260505110806 | 63 | 54 | 4.3 | 8.7 | 0.00 | 0.00 | 0.00 | 62 | 1013.2 |
| 20260505101805 | 61 | 87 | 2.6 | 7.0 | 0.00 | 0.00 | 0.00 | 66 | 1013.5 |
| 20260505100806 | 61 | 42 | 2.6 | 5.2 | 0.00 | 0.00 | 0.00 | 69 | 1013.4 |
| 20260505095805 | 61 | 26 | 3.5 | 7.0 | 0.00 | 0.00 | 0.00 | 69 | 1013.5 |
| 20260505094805 | 60 | 317 | 2.6 | 7.0 | 0.00 | 0.00 | 0.00 | 72 | 1013.7 |
| 20260505093806 | 59 | 348 | 3.5 | 7.8 | 0.00 | 0.00 | 0.00 | 71 | 1013.8 |
| 20260505092305 | 59 | 12 | 0.9 | 4.3 | 0.00 | 0.00 | 0.00 | 71 | 1013.9 |
| 20260505091806 | 58 | 23 | 2.6 | 5.2 | 0.00 | 0.00 | 0.00 | 75 | 1013.9 |
| 20260505091306 | 58 | 5 | 2.6 | 5.2 | 0.00 | 0.00 | 0.00 | 74 | 1013.8 |
| 20260505090807 | 57 | 63 | 0.9 | 4.3 | 0.00 | 0.00 | 0.00 | 73 | 1013.9 |
| 20260505090305 | 57 | 46 | 0.9 | 2.6 | 0.00 | 0.00 | 0.00 | 76 | 1013.9 |
| 20260505084806 | 56 | 332 | 1.7 | 5.2 | 0.00 | 0.00 | 0.00 | 78 | 1014.0 |
| 20260505082307 | 53 | 54 | 1.7 | 2.6 | 0.00 | 0.00 | 0.00 | 88 | 1014.2 |
| 20260505081306 | 52 | 43 | 0.9 | 1.7 | 0.00 | 0.00 | 0.00 | 92 | 1014.2 |
| 20260505080806 | 51 | 54 | 0.9 | 2.6 | 0.00 | 0.00 | 0.00 | 92 | 1014.2 |
| 20260505075805 | 50 | 62 | 0.9 | 2.6 | 0.00 | 0.00 | 0.00 | 93 | 1014.2 |
| 20260505075305 | 50 | 55 | 1.7 | 4.3 | 0.00 | 0.00 | 0.00 | 94 | 1014.2 |
| 20260505074806 | 50 | 49 | 0.9 | 1.7 | 0.00 | 0.00 | 0.00 | 95 | 1014.3 |
| 20260505073306 | 48 | 53 | 0.9 | 1.7 | 0.00 | 0.00 | 0.00 | 96 | 1014.2 |
| 20260505072306 | 48 | 53 | 0.0 | 1.7 | 0.00 | 0.00 | 0.00 | 97 | 1014.4 |
| 20260505071805 | 47 | 53 | 0.9 | 1.7 | 0.00 | 0.00 | 0.00 | 97 | 1014.4 |
| 20260505070806 | 46 | 53 | 0.0 | 1.7 | 0.00 | 0.00 | 0.00 | 97 | 1014.4 |
| 20260505065305 | 45 | 53 | 0.0 | 1.7 | 0.00 | 0.00 | 0.00 | 97 | 1014.5 |
| 20260505064805 | 45 | 53 | 0.0 | 1.7 | 0.00 | 0.00 | 0.00 | 97 | 1014.6 |
| 20260505064305 | 45 | 53 | 0.0 | 1.7 | 0.00 | 0.00 | 0.00 | 97 | 1014.6 |
| 20260505063305 | 43 | 53 | 0.0 | 0.0 | 0.00 | 0.00 | 0.00 | 97 | 1014.6 |
| 20260505062806 | 43 | 53 | 0.0 | 0.0 | 0.00 | 0.00 | 0.00 | 97 | 1014.6 |
| 20260505062306 | 43 | 53 | 0.0 | 0.0 | 0.00 | 0.00 | 0.00 | 97 | 1014.8 |
| 20260505061805 | 42 | 53 | 0.0 | 0.0 | 0.00 | 0.00 | 0.00 | 97 | 1014.7 |
| 20260505061305 | 42 | 53 | 0.0 | 0.9 | 0.00 | 0.00 | 0.00 | 97 | 1014.7 |
| 20260505060306 | 41 | 53 | 0.0 | 0.0 | 0.00 | 0.00 | 0.00 | 97 | 1014.6 |
| 20260505055305 | 41 | 53 | 0.0 | 0.0 | 0.00 | 0.00 | 0.00 | 97 | 1014.7 |
| 20260505054805 | 41 | 53 | 0.0 | 1.7 | 0.00 | 0.00 | 0.00 | 97 | 1014.6 |
| 20260505053306 | 39 | 53 | 0.0 | 0.0 | 0.00 | 0.00 | 0.00 | 95 | 1014.6 |
| 20260505052805 | 39 | 53 | 0.9 | 0.9 | 0.00 | 0.00 | 0.00 | 96 | 1014.7 |
| 20260505051805 | 38 | 53 | 0.0 | 0.9 | 0.00 | 0.00 | 0.00 | 96 | 1014.7 |
| 20260505051305 | 37 | 53 | 0.0 | 0.0 | 0.00 | 0.00 | 0.00 | 96 | 1014.6 |
| 20260505041305 | 37 | 53 | 0.0 | 0.0 | 0.00 | 0.00 | 0.00 | 95 | 1014.8 |
| 20260505040805 | 37 | 53 | 0.0 | 0.0 | 0.00 | 0.00 | 0.00 | 95 | 1014.7 |
| 20260505040306 | 37 | 53 | 0.0 | 0.0 | 0.00 | 0.00 | 0.00 | 95 | 1014.7 |
| 20260505035806 | 37 | 53 | 0.0 | 0.0 | 0.00 | 0.00 | 0.00 | 95 | 1014.7 |
| 20260505034805 | 37 | 53 | 0.9 | 1.7 | 0.00 | 0.00 | 0.00 | 95 | 1014.7 |
| 20260505033805 | 37 | 53 | 0.0 | 0.0 | 0.00 | 0.00 | 0.00 | 95 | 1014.9 |
| 20260505032805 | 37 | 53 | 0.0 | 0.0 | 0.00 | 0.00 | 0.00 | 95 | 1014.7 |
| 20260505031805 | 37 | 53 | 0.0 | 0.0 | 0.00 | 0.00 | 0.00 | 95 | 1014.8 |
| 20260505031307 | 37 | 53 | 0.0 | 0.0 | 0.00 | 0.00 | 0.00 | 95 | 1014.8 |
| 20260505030306 | 37 | 53 | 0.0 | 1.7 | 0.00 | 0.00 | 0.00 | 95 | 1014.7 |
| 20260505025806 | 38 | 53 | 0.0 | 1.7 | 0.00 | 0.00 | 0.00 | 95 | 1014.8 |
| 20260505025306 | 38 | 53 | 0.0 | 1.7 | 0.00 | 0.00 | 0.00 | 95 | 1014.7 |
| 20260505024806 | 38 | 53 | 0.0 | 1.7 | 0.00 | 0.00 | 0.00 | 95 | 1014.7 |
| 20260505024306 | 38 | 53 | 0.0 | 1.7 | 0.00 | 0.00 | 0.00 | 95 | 1014.7 |
| 20260505023805 | 38 | 53 | 0.9 | 1.7 | 0.00 | 0.00 | 0.00 | 95 | 1014.7 |
| 20260505022305 | 39 | 53 | 0.0 | 1.7 | 0.00 | 0.00 | 0.00 | 95 | 1014.8 |
| 20260505021805 | 39 | 53 | 0.9 | 0.9 | 0.00 | 0.00 | 0.00 | 95 | 1014.9 |
| 20260505014307 | 40 | 53 | 0.0 | 0.0 | 0.00 | 0.00 | 0.00 | 94 | 1015.0 |